Погода в Рулихе

Казахстан     50°29′05″N   81°59′15″E
темп.,
°C
ветер,
м/с
пор.,
м/с
влажн.,
%
обл.,
%
осадки,
мм/ч
давл.,
гПа
погр.,
м
1 марта, пн
пн100:00−9ююв71891100 4.0 1026782
03:00−9ююв81794100 3.4 1024757
06:00−8ююв81894100 8.3 1023782
09:00−7ю91794100 4.3 1022798
12:00−5ю81595100 9.1 1021852
15:00−3ю81396100 4.0 1020885
18:00−3ю81596100 7.7 1019815
21:00−4ю81596100 4.2 1019795
2 марта, вт
вт200:00−4ю81695100 8.4 1019706
03:00−3ю71396100 3.1 1019619
06:00−3ю51097100 5.5 1020512
09:00−4ю51096100 1.4 1020517
12:00−2ю61096100 2.2 1019629
15:00−2ю5997100 1.8 1017618
18:00−2ююв51097100 3.8 1016456
21:00−2ю61197100 4.0 1016524
3 марта, ср
ср300:00−2ю4997100 7.6 1016379
03:00−2зсз2398100 2.9 1017152
06:00−5сз5796100 4.2 1019364
09:00−11з499299 0.3 1022421
12:00−11ююз359086 0.3 1024557
15:00−9ююз3689100 0.1 1024543
18:00−11ю2393100 0.1 102529
21:00−12юв2390100 0.0 102625
4 марта, чт
чт400:00−11ююв3591100 0.0 1027131
03:00−12ююв3786100 0.0 1027173
06:00−13ююв348186 0.0 102864
09:00−12ююв3108284 0.0 1028254
12:00−8ююв6127787 0.0 1027536
15:00−5ю61282100 0.0 1025747
18:00−8ююв358492 0.0 102578
21:00−9юв467749 0.0 102597
5 марта, пт
пт500:00−11юв347466 0.0 102467
03:00−10юв4772100 0.0 1021126
06:00−6юв71766100 0.0 1016388
09:00−6ю51493100 3.1 1014578
12:00−2ююз101790100 7.7 1017794
15:00−1зюз8129499 1.3 1022921
18:00−1зюз5109399 1.5 1026591
21:00−6ю339690 0.1 102938